Location: ?????????
(38.0736°N, 23.2119°E)
Time: 14:07:32
(UTC+00:00)

Cosmos 1354 Rocket - Pass Details

Date: 18 April 2024
Orbit: 762 x 781 km, 74.0° (Epoch: 17 May)

Event Time Altitude Azimuth Distance (km) Brightness Sun altitude
Rises 18:56:45 0° 345° (NNW) 3,274 8.0 -20.6°
Reaches altitude 10° 18:59:11 10° 349° (NNW) 2,343 7.1 -21.0°
Maximum altitude 19:04:28 62° 70° (ENE) 879 4.1 -21.8°
Enters shadow 19:05:30 51° 118° (ESE) 978 4.1 -22.0°
